Location: Launois
(49.6535°N, 4.5395°E)
Time: 23:04:33
(UTC+00:00)

CZ-2D R/B - Pass Details

Date: 17 August 2024
Orbit: 790 x 842 km, 98.8° (Epoch: 07 September)

Event Time Altitude Azimuth Distance (km) Brightness Sun altitude
Rises 02:21:26 0° 12° (NNE) 3,341 6.4 -18.4°
Reaches altitude 10° 02:23:47 10° 9° (N) 2,413 5.4 -18.1°
Maximum altitude 02:29:03 62° 290° (WNW) 924 2.3 -17.6°
Enters shadow 02:31:43 29° 220° (SW) 1,467 2.9 -17.3°
